sat.trackr.live / text

‹ back to catalog

STARLINK-32167

NORAD 60268 · 2024-131P

PAYLOAD ACTIVE UNKNOWN

§ Identity

Operator
Country
US
Launch date
2024-07-27
Launch site
AFETR
Launch vehicle
Mass (kg)
RCS (m²)

Purposes: comms

External: N2YO · Heavens-Above · Gunter

§ Orbital elements

Epoch: 2026-05-25T01:06:36.038016Z

Period
94.11 min
Inclination
53.1602°
Eccentricity
0.0001177
Mean motion
15.30204772 rev/d
Perigee alt
474.4 km
Apogee alt
476.0 km
Semi-major
6,853.3 km
B*
4.8475e-5
RAAN
57.4544°
Arg perigee
74.7137°
Mean anomaly
285.3994°
Rev number
10,340

§ Raw data

STARLINK-321671 60268U 24131P   26145.04625044  .00001077  00000+0  48475-4 0  99922 60268  53.1602  57.4544 0001177  74.7137 285.3994 15.30204772103404

JSON: /api/v1/satellites/60268 · /tle

For live sub-satellite position, see the globe view (requires WebGL).

§ Visibility from observer

Set your observer location to see the next 7 days of passes ≥ 10°. The values pass through the URL so the page stays shareable.

No JS? Fill the form by hand. The geolocation button needs JavaScript.